Regional Weather Roundup
Issued by NWS

Home | Current Version | Previous Version | Graphics & Text | Print | Product List | Glossary On
Versions: 1 2 3 4 5 6 7 8 9 10 11 12 13 14 15 16 17 18 19 20 21 22 23 24 25 26 27 28 29 30 31 32 33 34 35 36 37 38 39 40 41 42 43 44 45 46 47 48 49 50
000
ASUS43 KBIS 291810
RWRND

NORTH DAKOTA REGIONAL WEATHER ROUNDUP
NATIONAL WEATHER SERVICE BISMARCK ND
100 PM CDT FRI APR 29 2016

NOTE: "FAIR" INDICATES FEW OR NO CLOUDS BELOW 12,000 FEET WITH NO
SIGNIFICANT WEATHER AND/OR OBSTRUCTIONS TO VISIBILITY.


NDZ001>003-009>011-017-291900-
NORTHWEST NORTH DAKOTA

CITY           SKY/WX    TMP DP  RH WIND       PRES   REMARKS
WILLISTON      SUNNY     56  26  31 SE15G22   30.16F
6HR MIN TEMP:  34; 6HR MAX TEMP:  57;

MINOT          SUNNY     61  24  24 E12       30.18F
MINOT AFB      SUNNY     57  25  29 SE8       30.18F
$$

NDZ018>021-031>035-040>046-291900-
SOUTHWEST NORTH DAKOTA

CITY           SKY/WX    TMP DP  RH WIND       PRES   REMARKS
BISMARCK       SUNNY     57  31  37 NE14      30.13F
6HR MIN TEMP:  34; 6HR MAX TEMP:  57;

DICKINSON      CLOUDY    51  27  39 E12       30.10F
GARRISON         N/A     57  24  28 SE13      30.16F
6HR MIN TEMP:  30; 6HR MAX TEMP:  57;

HETTINGER ARPT CLOUDY    51  32  48 E9        30.13R
$$

NDZ004>008-012>016-024-026-027-054-291900-
NORTHEAST NORTH DAKOTA

CITY           SKY/WX    TMP DP  RH WIND       PRES   REMARKS
GRAND FORKS    MOSUNNY   58  32  37 NE8       30.20F
GRND FRKS AFB  SUNNY     58  30  35 E7G17     30.20F
DEVILS LAKE    SUNNY     54  28  36 NE16      30.21F
$$

NDZ022-023-025-028>030-036>039-047>053-291900-
SOUTHEAST NORTH DAKOTA

CITY           SKY/WX    TMP DP  RH WIND       PRES   REMARKS
FARGO          SUNNY     61  30  31 NE12G20   30.14F
6HR MIN TEMP:  36; 6HR MAX TEMP:  61;

JAMESTOWN      SUNNY     58  30  34 NE15G24   30.12F
$$





USA.gov is the U.S. government's official web portal to all federal, state and local government web resources and services.